Regional Weather Roundup
Issued by NWS Charleston, SC

Current Version | Previous Version | Graphics & Text | Print | Product List | Glossary On
Versions: 1 2 3 4 5 6 7 8 9 10 11 12 13 14 15 16 17 18 19 20 21 22 23 24 25 26 27 28 29 30 31 32 33 34 35 36 37 38 39 40 41 42 43 44 45 46 47 48 49 50
000
ASUS42 KCHS 011026
RWRCHS

REGIONAL WEATHER ROUNDUP
NATIONAL WEATHER SERVICE CHARLESTON SC
500 AM EST SUN FEB 01 2015

NOTE: "FAIR" INDICATES FEW OR NO CLOUDS BELOW 12,000 FEET WITH NO
SIGNIFICANT WEATHER AND/OR OBSTRUCTIONS TO VISIBILITY.

NOT ALL STATIONS ARE QUALITY CONTROLLED BY THE NATIONAL
WEATHER SERVICE. USE DATA WITH CAUTION...ESPECIALLY
DEWPOINT OBSERVATIONS.

SCZ027-030-031-034>040-042>050-011100-
...SOUTHEAST SOUTH CAROLINA...

CITY           SKY/WX    TMP DP  RH WIND       PRES   REMARKS
N CHARLESTON   CLOUDY    39  34  82 CALM      30.30F
WATERFRONT PRK   N/A     46 N/A N/A CALM        N/A
MOUNT PLEASANT FAIR      37  36  93 CALM      30.30S
PINOPOLIS        N/A     45  30  57 CALM      30.21F
MONCKS CORNER  FAIR      36  32  87 CALM      30.29F
SUMMERVILLE    NOT AVBL
BEAUFORT MCAS  MOCLDY    40  38  93 CALM      30.29F
BEAUFORT ARPT  FAIR      43  41  93 CALM      30.28S
HILTON HEAD IS NOT AVBL
WALTERBORO     CLOUDY    36  36 100 CALM      30.30S
ALLENDALE      PTSUNNY   34  30  86 CALM      30.28S

...SOUTHERN MIDLANDS AND PEE DEE...

CITY           SKY/WX    TMP DP  RH WIND       PRES   REMARKS
GEORGETOWN     NOT AVBL
KINGSTREE      NOT AVBL
ORANGEBURG     CLOUDY    36  29  75 CALM      30.29S
BARNWELL       FAIR      36  30  80 CALM      30.28F
AIKEN          FAIR      37  30  75 S5        30.29S WCI  34
MANNING        FAIR      37  32  81 CALM      30.29S
COLUMBIA       CLOUDY    40  28  62 CALM      30.27S
SUMTER         CLOUDY    38  27  65 CALM      30.27S
FLORENCE       CLOUDY    38  28  67 SW3       30.29F
MYRTLE BEACH   CLOUDY    37  30  75 CALM      30.34R
N MYRTLE BEACH CLOUDY    36  30  79 CALM      30.32R

$$

GAZ063-065-086>088-099>101-113>116-118-119-134>141-150-011100-
...SOUTHEAST GEORGIA...

CITY           SKY/WX    TMP DP  RH WIND       PRES   REMARKS
SAVANNAH ARPT  MOCLDY    38  35  89 CALM      30.28F
HUNTER AAF     MOCLDY    39  37  93 E1        30.25F
FORT STEWART   MOCLDY    37  34  89 CALM      30.25F
STATESBORO     MOCLDY    35  35 100 CALM      30.27S
SYLVANIA       PTSUNNY   37  35  93 CALM      30.28F
CLAXTON        FAIR      34  34 100 CALM      30.27S

...CSRA...CENTRAL AND FAR SOUTHEAST GEORGIA...

CITY           SKY/WX    TMP DP  RH WIND       PRES   REMARKS
THOMSON        MOCLDY    40  32  73 CALM      30.29F
AUGUSTA-BUSH   MOCLDY    35  28  75 CALM      30.28F
AUGUSTA-DANIEL MOCLDY    43  25  49 SE3       30.27F
SWAINSBORO     FAIR      41  28  60 E3        30.26S
VIDALIA        PTCLDY    39  36  87 CALM      30.26R
EASTMAN        FAIR      34  34 100 CALM      30.27F
HAZLEHURST     FAIR      43  38  84 SE3       30.24R
ALMA           PTCLDY    38  35  89 CALM      30.25S
WAYCROSS       CLEAR     44  42  91 CALM      30.25S
JESUP          FAIR      39  37  93 CALM      30.26S
BAXLEY         FAIR      41  37  87 CALM      30.25S
BRUNSWICK      CLOUDY    41  37  87 CALM      30.26F
SAINT SIMONS   CLOUDY    49  46  90 E6        30.26S

$$

SCZ027-028-034-036>038-045-046-048>050-GAZ119-141-011100-
...LAKE AND SUPPLEMENTAL COASTAL OBSERVATIONS...

STATION/POSITION TIME  TEMP    WIND        PRES    WAVE   SWELL
                       AIR SEA DIR/SP/G            HT/PER HT/PER/DIR
                 (UTC) (F)     (DEG/KT/KT) (MB)    (FT/S) (FT/S/D)
UPR LAKE MARION  NOT AVBL
WINYAH BAY       0900   36     310/  1     1025.0
LAKE MURRAY      1000   47     210/  9/ 10 1024.0F
ACE BASIN NERRS  NOT AVBL
FORT PULASKI     1000   49 52   70/  4/  5 1025.5F
SAPELO ISLAND    1000   49      80/  5     1024.0F

$$

ANZ835-935-AMZ111-154-330-350-352-354-370-450-454-472-011100-
...C-MAN AND BUOY OBSERVATIONS...

STATION/POSITION TIME  TEMP    WIND        PRES    WAVE   SWELL
                       AIR SEA DIR/SP/G            HT/PER HT/PER/DIR
                 (UTC) (F)     (DEG/KT/KT) (MB)    (FT/S) (FT/S/D)
BUOY 41004       0950   56 69   70/  2/  4 1026.0R   4/10   3/10
BUOY 41008       0950   55 54   90/  8/  8 1024.6F   3/10   3/ 60/10
FOLLY BEACH CMAN 1000   50      50/  3/  3 1026.3F
CAPERS NEARSHORE NOT AVBL
FRIPP NEARSHORE  0900   51      70/  4/  6 1024.8F


STATION/POSITION TIME  TEMP    WIND        PRES    WAVE   SWELL
                       AIR SEA DIR/SP/G            HT/PER HT/PER/DIR
                 (UTC) (F)     (DEG/KT/KT) (MB)    (FT/S) (FT/S/D)
5E ST. MARYS GA  0921      56                N/A     3/ 9
FRYING PAN BUOY  0950   52 63  280/  4/  8 1027.3R   2/10   2/ 60/10
BUOY 41025       0950   51 72  280/ 14/ 17 1025.6S   7/11   7/ 80/11
CAPE LOOKOUT NC  1000   47     270/  9/  9 1026.4R
BUOY 41002       0950   57 70  350/  6/  8 1026.7R   8/11   8/360/11
BUOY 41010       0920   64 73  110/ 10/ 14 1024.7F
ST AUGUSTINE FL  1000   53      CALM  /  1 1024.4F


$$


USA.gov is the U.S. government's official web portal to all federal, state and local government web resources and services.